Regional Weather Roundup
Issued by NWS

Home | Current Version | Previous Version | Graphics & Text | Print | Product List | Glossary On
Versions: 1 2 3 4 5 6 7 8 9 10 11 12 13 14 15 16 17 18 19 20 21 22 23 24 25 26 27 28 29 30 31 32 33 34 35 36 37 38 39 40 41 42 43 44 45 46 47 48 49 50
000
ASUS43 KTOP 202159
RWRKS

WEATHER ROUNDUP FOR KANSAS
NATIONAL WEATHER SERVICE GOODLAND KS
500 PM CDT MON OCT 20 2014

NOTE:  "FAIR" INDICATES FEW OR NO CLOUDS BELOW 12,000 FEET WITH NO
SIGNIFICANT WEATHER AND/OR OBSTRUCTIONS TO VISIBILITY.

KSZ001>006-013>018-027>032-041>047-202300-
NORTHWEST KANSAS

CITY           SKY/WX    TMP DP  RH WIND       PRES   REMARKS
GOODLAND       SUNNY     75  40  28 S14       30.11S
HAYS           SUNNY     77  43  29 E5        30.07S
HILL CITY      SUNNY     79  38  22 SE5       30.07S
RUSSELL        SUNNY     77  44  30 E5        30.05S
$$

KSZ061>065-074>080-084>089-202300-
SOUTHWEST KANSAS

CITY           SKY/WX    TMP DP  RH WIND       PRES   REMARKS
DODGE CITY     SUNNY     77  40  26 E10       30.08S
ELKHART          N/A     75  50  41 E13         N/A
GARDEN CITY    SUNNY     76  39  26 SE9       30.08S
GREAT BEND     SUNNY     77  45  31 NE9       30.06R
LIBERAL        SUNNY     75  52  43 E13G20    30.09S
$$

KSZ066>073-081>083-090>101-202300-
SOUTHEAST KANSAS

CITY           SKY/WX    TMP DP  RH WIND       PRES   REMARKS
CHANUTE        SUNNY     78  50  37 N5        30.02R
COFFEYVILLE    SUNNY     77  54  44 E6        30.01S
HUTCHINSON     SUNNY     80  41  24 N9        30.04S
NEWTON         SUNNY     75  45  33 NE6       30.07S
PARSONS        SUNNY     79  53  40 VRB3      30.03S
WICHITA INTL   SUNNY     81  44  27 NE8       30.02S
WICHITA JABRA  SUNNY     79  44  28 E6        30.03S
WINFIELD       SUNNY     79  49  34 E8        30.03S
$$

KSZ007>012-019>026-033>040-048>060-102>105-202300-
NORTHEAST KANSAS

CITY           SKY/WX    TMP DP  RH WIND       PRES   REMARKS
EMPORIA        SUNNY     76  43  30 N6        30.03S
LAWRENCE       SUNNY     75  46  35 N5        30.03S
MANHATTAN      SUNNY     77  41  27 NE6       30.03S
OLATHE IND     SUNNY     72  46  39 N8        30.03S
OLATHE EXE     SUNNY     74  44  34 N6        30.02S
SALINA         SUNNY     77  45  32 NE6       30.05R
TOPEKA BILLARD SUNNY     75  45  34 N8        30.03S
TOPEKA FORBES  SUNNY     74  44  34 N8        30.04S
$$



USA.gov is the U.S. government's official web portal to all federal, state and local government web resources and services.